This demonstration page uses our WeatherBlox Daily Observations layout. Learn more.

Left ArrowRight Arrow

Hourly Observations for May 1, 2018

Temp ( °F °C ) Dew Point ( °F °C ) Humidity (%) Winds ( mph kmh ) Pressure ( in mb ) Visibility ( mi km ) Precip ( " mm )
12:53 am 00:53 Clear 45 7.2 39 3.9 80 80 Calm 30.15 1021 10 16 0.00 0.00
1:53 am 01:53 Clear 44 6.7 40 4.4 85 85 Calm 30.14 1021 10 16 0.00 0.00
2:53 am 02:53 Clear 42 5.6 37 2.8 82 82 Calm 30.13 1020 10 16 0.00 0.00
3:53 am 03:53 Clear 41 5 39 3.9 93 93 Calm 30.13 1020 10 16 0.00 0.00
4:53 am 04:53 Clear 41 5 38 3.3 89 89 Calm 30.14 1021 10 16 0.00 0.00
5:53 am 05:53 Clear 41 5 39 3.9 93 93 Calm 30.15 1021 10 16 0.00 0.00
6:53 am 06:53 Sunny 40 4.4 38 3.3 93 93 Calm 30.17 1022 10 16 0.00 0.00
7:53 am 07:53 Sunny 45 7.2 40 4.4 83 83 Calm 30.19 1022 10 16 0.00 0.00
8:53 am 08:53 Sunny 55 12.8 44 6.7 67 67 E 5 7 30.19 1023 10 16 0.00 0.00
9:53 am 09:53 Sunny 64 17.8 43 6.1 46 46 Calm 30.19 1023 10 16 0.00 0.00
10:53 am 10:53 Sunny 70 21.1 41 5 35 35 WSW 6 9 30.19 1022 10 16 0.00 0.00
11:53 am 11:53 Sunny 75 23.9 42 5.6 31 31 SSW 7 11 30.19 1022 10 16 0.00 0.00
12:53 pm 12:53 Sunny 77 25 43 6.1 30 30 WSW 7 11 30.17 1022 10 16 0.00 0.00
1:53 pm 13:53 Sunny 79 26.1 42 5.6 27 27 VRB 7 11 30.15 1021 10 16 0.00 0.00
2:53 pm 14:53 Sunny 80 26.7 40 4.4 24 24 SW 8 13 30.13 1020 10 16 0.00 0.00
3:53 pm 15:53 Sunny 81 27.2 39 3.9 22 22 SW 9 15 30.11 1020 10 16 0.00 0.00
4:53 pm 16:53 Sunny 82 27.8 42 5.6 24 24 SSW 8 13 30.10 1019 10 16 0.00 0.00
5:53 pm 17:53 Sunny 81 27.2 40 4.4 23 23 SSW 9 15 30.10 1019 10 16 0.00 0.00
6:53 pm 18:53 Sunny 80 26.7 41 5 25 25 SSW 7 11 30.09 1019 10 16 0.00 0.00
7:53 pm 19:53 Sunny 77 25 42 5.6 29 29 SSW 6 9 30.09 1019 10 16 0.00 0.00
8:53 pm 20:53 Clear 73 22.8 43 6.1 34 34 S 5 7 30.09 1019 10 16 0.00 0.00
9:53 pm 21:53 Clear 71 21.7 44 6.7 38 38 S 5 7 30.08 1019 10 16 0.00 0.00
10:53 pm 22:53 Clear 70 21.1 43 6.1 38 38 S 3 6 30.08 1019 10 16 0.00 0.00
11:53 pm 23:53 Clear 67 19.4 45 7.2 45 45 SSW 5 7 30.09 1019 10 16 0.00 0.00

Powered by AerisWeather